CW3846 Weather Reports


Display with metric or nautical units.
time (UTC)temp
F
wind
direction
speed
MPH
gust
MPH
rain 1hr
in
rain 24hr
in
rain mn
in
humidity
%
barometer
mb
20260507003535 85 0 0.0 0.0 0.00 0.00 0.00 13 1012.3
20260507003043 85 0 0.0 1.0 0.00 0.00 0.00 12 1012.4
20260507002531 85 0 0.0 1.0 0.00 0.00 0.00 12 1012.3
20260507002031 85 0 0.0 0.0 0.00 0.00 0.00 12 1012.3
20260507001550 85 0 0.0 2.0 0.00 0.00 0.00 12 1012.4
20260507001029 85 0 0.0 2.0 0.00 0.00 0.00 13 1012.4
20260507000532 85 0 0.0 2.0 0.00 0.00 0.00 12 1012.4
20260507000047 85 0 0.0 0.0 0.00 0.00 0.00 12 1012.4
20260506235532 85 0 0.0 4.0 0.00 0.00 0.00 12 1012.4
20260506235031 85 0 0.0 4.0 0.00 0.00 0.00 13 1012.4
20260506234545 85 0 1.0 4.0 0.00 0.00 0.00 12 1012.5
20260506234031 86 0 0.0 0.0 0.00 0.00 0.00 13 1012.4
20260506233532 86 0 0.0 0.0 0.00 0.00 0.00 12 1012.4
20260506233059 86 0 0.0 0.0 0.00 0.00 0.00 12 1012.5
20260506232531 86 0 0.0 0.0 0.00 0.00 0.00 12 1012.6
20260506232031 86 0 0.0 0.0 0.00 0.00 0.00 12 1012.5
20260506231541 86 0 0.0 0.0 0.00 0.00 0.00 12 1012.7
20260506231031 85 0 0.0 0.0 0.00 0.00 0.00 12 1012.6
20260506230529 85 0 0.0 1.0 0.00 0.00 0.00 13 1012.6
20260506225533 85 0 0.0 4.0 0.00 0.00 0.00 12 1012.9
20260506225032 85 0 0.0 4.0 0.00 0.00 0.00 12 1012.8
20260506224549 85 0 0.0 2.0 0.00 0.00 0.00 12 1012.9
20260506224031 84 0 0.0 2.0 0.00 0.00 0.00 13 1013.0
20260506223534 84 0 0.0 1.0 0.00 0.00 0.00 12 1013.1
20260506223047 84 0 0.0 3.0 0.00 0.00 0.00 13 1013.1
20260506222529 84 0 0.0 4.0 0.00 0.00 0.00 13 1013.1
20260506222035 84 0 0.0 4.0 0.00 0.00 0.00 12 1013.2
20260506221556 84 0 0.0 4.0 0.00 0.00 0.00 12 1013.2
20260506221031 84 0 0.0 2.0 0.00 0.00 0.00 12 1013.3
20260506220534 84 0 0.0 4.0 0.00 0.00 0.00 12 1013.4
20260506220059 84 111 0.0 4.0 0.00 0.00 0.00 12 1013.5
20260506215531 84 0 0.0 4.0 0.00 0.00 0.00 12 1013.4
20260506215031 83 0 0.0 6.0 0.00 0.00 0.00 13 1013.5
20260506214551 83 0 0.0 6.0 0.00 0.00 0.00 13 1013.7
20260506214030 83 0 1.0 6.0 0.00 0.00 0.00 12 1013.8
20260506213531 83 107 0.0 4.0 0.00 0.00 0.00 13 1013.8
20260506213046 83 0 0.0 2.0 0.00 0.00 0.00 14 1014.0
20260506212531 84 0 0.0 2.0 0.00 0.00 0.00 13 1014.0
20260506212031 84 0 0.0 2.0 0.00 0.00 0.00 12 1014.0
20260506211544 84 0 0.0 2.0 0.00 0.00 0.00 13 1014.2
20260506211030 84 0 0.0 0.0 0.00 0.00 0.00 13 1014.2
20260506210530 84 0 0.0 2.0 0.00 0.00 0.00 13 1014.3
20260506210044 83 0 0.0 2.0 0.00 0.00 0.00 13 1014.4
20260506205535 83 0 0.0 2.0 0.00 0.00 0.00 13 1014.4
20260506205031 83 0 0.0 3.0 0.00 0.00 0.00 13 1014.5
20260506204548 82 0 0.0 3.0 0.00 0.00 0.00 14 1014.5
20260506204031 82 0 0.0 4.0 0.00 0.00 0.00 14 1014.5
20260506203558 82 0 0.0 4.0 0.00 0.00 0.00 13 1014.6
20260506203047 82 0 0.0 4.0 0.00 0.00 0.00 14 1014.7
20260506202531 82 0 0.0 1.0 0.00 0.00 0.00 14 1014.7
20260506202030 82 0 0.0 6.0 0.00 0.00 0.00 14 1014.7
20260506201545 82 0 0.0 6.0 0.00 0.00 0.00 13 1014.9
20260506201031 82 0 0.0 2.0 0.00 0.00 0.00 14 1014.8
20260506200530 82 0 0.0 2.0 0.00 0.00 0.00 14 1014.9
20260506200047 83 0 0.0 1.0 0.00 0.00 0.00 14 1014.9
20260506195531 82 0 0.0 1.0 0.00 0.00 0.00 14 1014.9
20260506195032 82 0 0.0 1.0 0.00 0.00 0.00 13 1015.1
20260506194547 82 0 0.0 3.0 0.00 0.00 0.00 14 1015.1
20260506194031 81 0 0.0 3.0 0.00 0.00 0.00 14 1015.2
20260506193531 81 0 0.0 3.0 0.00 0.00 0.00 14 1015.2
20260506193042 81 0 0.0 1.0 0.00 0.00 0.00 14 1015.4
20260506192530 81 0 0.0 1.0 0.00 0.00 0.00 15 1015.4
20260506192031 81 0 0.0 1.0 0.00 0.00 0.00 15 1015.5
20260506191540 81 0 0.0 1.0 0.00 0.00 0.00 16 1015.5
20260506191030 80 0 0.0 1.0 0.00 0.00 0.00 15 1015.4
20260506190528 80 0 0.0 2.0 0.00 0.00 0.00 15 1015.5
20260506190043 80 0 0.0 2.0 0.00 0.00 0.00 16 1015.6
20260506185530 80 0 0.0 0.0 0.00 0.00 0.00 15 1015.6
20260506185029 80 0 0.0 0.0 0.00 0.00 0.00 16 1015.7
20260506184542 79 0 0.0 0.0 0.00 0.00 0.00 16 1015.9
20260506184032 79 0 0.0 1.0 0.00 0.00 0.00 16 1015.8
20260506183532 79 0 0.0 1.0 0.00 0.00 0.00 17 1015.9
20260506183043 79 0 0.0 0.0 0.00 0.00 0.00 17 1016.0
20260506182529 79 0 0.0 0.0 0.00 0.00 0.00 17 1016.1
20260506182031 78 0 0.0 0.0 0.00 0.00 0.00 17 1016.1
20260506181542 78 0 0.0 0.0 0.00 0.00 0.00 17 1016.2
20260506181031 77 0 0.0 0.0 0.00 0.00 0.00 18 1016.2
20260506180530 77 0 0.0 0.0 0.00 0.00 0.00 18 1016.2
20260506180042 77 0 0.0 1.0 0.00 0.00 0.00 18 1016.2
20260506175529 77 0 0.0 1.0 0.00 0.00 0.00 19 1016.2
20260506175030 76 0 0.0 0.0 0.00 0.00 0.00 19 1016.2
20260506174547 76 0 0.0 0.0 0.00 0.00 0.00 20 1016.2
20260506174031 76 0 0.0 0.0 0.00 0.00 0.00 20 1016.1
20260506173532 75 0 0.0 0.0 0.00 0.00 0.00 21 1016.2
20260506173058 75 0 0.0 0.0 0.00 0.00 0.00 20 1016.2
20260506172531 74 0 0.0 0.0 0.00 0.00 0.00 21 1016.2
20260506172030 74 0 0.0 0.0 0.00 0.00 0.00 22 1016.2
20260506171554 73 0 0.0 0.0 0.00 0.00 0.00 21 1016.2
20260506171031 73 0 0.0 2.0 0.00 0.00 0.00 22 1016.2
20260506170531 73 0 0.0 2.0 0.00 0.00 0.00 22 1016.1
20260506170041 73 0 0.0 0.0 0.00 0.00 0.00 23 1016.2
20260506165528 72 0 0.0 0.0 0.00 0.00 0.00 23 1016.1
20260506165030 72 0 0.0 0.0 0.00 0.00 0.00 24 1016.1
20260506164558 71 0 0.0 0.0 0.00 0.00 0.00 24 1016.2
20260506164030 71 0 0.0 0.0 0.00 0.00 0.00 25 1016.2
20260506163530 71 0 0.0 0.0 0.00 0.00 0.00 25 1016.2
20260506163045 70 0 0.0 0.0 0.00 0.00 0.00 25 1016.2
20260506162528 70 0 0.0 0.0 0.00 0.00 0.00 26 1016.2
20260506162031 70 0 0.0 0.0 0.00 0.00 0.00 26 1016.2
20260506161544 69 0 0.0 0.0 0.00 0.00 0.00 27 1016.2
20260506161032 69 0 0.0 0.0 0.00 0.00 0.00 27 1016.2
20260506160528 68 0 0.0 0.0 0.00 0.00 0.00 28 1016.1
20260506160059 68 0 0.0 0.0 0.00 0.00 0.00 28 1016.0
20260506155529 67 0 0.0 0.0 0.00 0.00 0.00 27 1016.2
20260506155031 67 0 0.0 0.0 0.00 0.00 0.00 29 1016.2
20260506154550 66 0 0.0 0.0 0.00 0.00 0.00 29 1016.1
20260506154031 66 0 0.0 0.0 0.00 0.00 0.00 29 1016.0
20260506153531 66 0 0.0 0.0 0.00 0.00 0.00 29 1016.1
20260506153047 65 0 0.0 0.0 0.00 0.00 0.00 30 1016.2
20260506152533 65 0 0.0 0.0 0.00 0.00 0.00 30 1016.2
20260506152030 64 0 0.0 0.0 0.00 0.00 0.00 31 1016.2
20260506151545 64 0 0.0 0.0 0.00 0.00 0.00 32 1016.2
20260506151032 63 0 0.0 0.0 0.00 0.00 0.00 32 1016.3
20260506150529 63 0 0.0 0.0 0.00 0.00 0.00 32 1016.3
20260506150045 63 0 0.0 0.0 0.00 0.00 0.00 33 1016.2
20260506145531 62 0 0.0 0.0 0.00 0.00 0.00 33 1016.3
20260506145030 62 0 0.0 0.0 0.00 0.00 0.00 34 1016.2
20260506144544 62 0 0.0 0.0 0.00 0.00 0.00 34 1016.2
20260506144031 61 0 0.0 0.0 0.00 0.00 0.00 35 1016.0
20260506143529 61 0 0.0 0.0 0.00 0.00 0.00 35 1016.0
20260506143040 60 0 0.0 0.0 0.00 0.00 0.00 36 1016.0
20260506142531 60 0 0.0 0.0 0.00 0.00 0.00 37 1015.9
20260506142029 60 0 0.0 0.0 0.00 0.00 0.00 37 1015.9
20260506141603 59 0 0.0 0.0 0.00 0.00 0.00 37 1015.8
20260506141032 59 0 0.0 0.0 0.00 0.00 0.00 37 1015.8
20260506140531 59 0 0.0 0.0 0.00 0.00 0.00 37 1015.8
20260506140045 59 0 0.0 0.0 0.00 0.00 0.00 37 1015.7
20260506135530 58 0 0.0 0.0 0.00 0.00 0.00 38 1015.7
20260506135031 58 0 0.0 0.0 0.00 0.00 0.00 38 1015.6
20260506134547 58 0 0.0 0.0 0.00 0.00 0.00 38 1015.6
20260506134033 57 0 0.0 0.0 0.00 0.00 0.00 39 1015.5
20260506133532 57 0 0.0 0.0 0.00 0.00 0.00 40 1015.5
20260506133041 57 0 0.0 0.0 0.00 0.00 0.00 40 1015.5
20260506132529 57 0 0.0 0.0 0.00 0.00 0.00 39 1015.5
20260506132029 56 0 0.0 0.0 0.00 0.00 0.00 40 1015.3
20260506131547 56 0 0.0 0.0 0.00 0.00 0.00 39 1015.3
20260506131030 56 0 0.0 0.0 0.00 0.00 0.00 40 1015.3
20260506130529 56 0 0.0 0.0 0.00 0.00 0.00 38 1015.2
20260506130047 56 0 0.0 0.0 0.00 0.00 0.00 38 1015.0
20260506125530 56 0 0.0 0.0 0.00 0.00 0.00 38 1015.1
20260506125031 57 0 0.0 0.0 0.00 0.00 0.00 37 1014.9
20260506124546 57 0 0.0 0.0 0.00 0.00 0.00 36 1014.8
20260506124028 57 0 0.0 0.0 0.00 0.00 0.00 36 1014.8
20260506123528 58 0 0.0 0.0 0.00 0.00 0.00 37 1014.7
20260506123046 58 0 0.0 0.0 0.00 0.00 0.00 36 1014.7
20260506122529 58 0 0.0 0.0 0.00 0.00 0.00 36 1014.6
20260506122030 58 0 0.0 0.0 0.00 0.00 0.00 36 1014.6
20260506121548 58 0 0.0 0.0 0.00 0.00 0.00 36 1014.5
20260506121030 58 0 0.0 0.0 0.00 0.00 0.00 36 1014.5
20260506120529 59 0 0.0 0.0 0.00 0.00 0.00 37 1014.4
20260506120107 59 0 0.0 0.0 0.00 0.00 0.00 37 1014.4
20260506115529 59 0 0.0 0.0 0.00 0.00 0.00 37 1014.3
20260506115029 59 0 0.0 0.0 0.00 0.00 0.00 37 1014.3
20260506114547 59 0 0.0 0.0 0.00 0.00 0.00 37 1014.3
20260506114029 59 0 0.0 0.0 0.00 0.00 0.00 37 1014.2
20260506113532 59 0 0.0 0.0 0.00 0.00 0.00 38 1014.4
20260506113043 59 0 0.0 0.0 0.00 0.00 0.00 37 1014.4
20260506112529 59 0 0.0 0.0 0.00 0.00 0.00 37 1014.3
20260506112028 59 0 0.0 0.0 0.00 0.00 0.00 37 1014.3
20260506111541 59 0 0.0 0.0 0.00 0.00 0.00 37 1014.2
20260506111030 59 0 0.0 0.0 0.00 0.00 0.00 37 1014.2
20260506110529 59 0 0.0 0.0 0.00 0.00 0.00 37 1014.3
20260506110041 59 0 0.0 0.0 0.00 0.00 0.00 36 1014.3
20260506105531 59 0 0.0 0.0 0.00 0.00 0.00 36 1014.3
20260506105028 59 0 0.0 0.0 0.00 0.00 0.00 36 1014.3
20260506104544 59 0 0.0 0.0 0.00 0.00 0.00 35 1014.2
20260506104031 59 0 0.0 0.0 0.00 0.00 0.00 35 1014.3
20260506103530 59 0 0.0 0.0 0.00 0.00 0.00 36 1014.1
20260506103046 59 0 0.0 0.0 0.00 0.00 0.00 35 1014.1
20260506102529 59 0 0.0 0.0 0.00 0.00 0.00 35 1014.1
20260506102031 59 0 0.0 0.0 0.00 0.00 0.00 35 1014.1
20260506101542 59 0 0.0 0.0 0.00 0.00 0.00 35 1013.9
20260506101033 59 0 0.0 0.0 0.00 0.00 0.00 34 1013.8
20260506100531 59 0 0.0 0.0 0.00 0.00 0.00 34 1013.8
20260506100043 60 0 0.0 0.0 0.00 0.00 0.00 35 1013.7
20260506095531 60 0 0.0 0.0 0.00 0.00 0.00 33 1013.7
20260506095031 60 0 0.0 0.0 0.00 0.00 0.00 34 1013.8
20260506094545 60 0 0.0 0.0 0.00 0.00 0.00 34 1013.8
20260506094031 60 0 0.0 0.0 0.00 0.00 0.00 33 1013.8
20260506093531 60 0 0.0 0.0 0.00 0.00 0.00 33 1013.8
20260506093050 60 0 0.0 0.0 0.00 0.00 0.00 33 1013.7
20260506092531 60 0 0.0 0.0 0.00 0.00 0.00 33 1013.7
20260506092032 61 0 0.0 0.0 0.00 0.00 0.00 33 1013.7
20260506091545 61 0 0.0 0.0 0.00 0.00 0.00 33 1013.7
20260506091030 61 0 0.0 0.0 0.00 0.00 0.00 33 1013.7
20260506090531 61 0 0.0 0.0 0.00 0.00 0.00 32 1013.7
20260506090044 61 0 0.0 0.0 0.00 0.00 0.00 32 1013.6
20260506085530 61 0 0.0 0.0 0.00 0.00 0.00 32 1013.6
20260506085028 62 0 0.0 0.0 0.00 0.00 0.00 31 1013.7
20260506084541 62 0 0.0 0.0 0.00 0.00 0.00 31 1013.6
20260506084032 62 0 0.0 0.0 0.00 0.00 0.00 32 1013.6
20260506083532 62 0 0.0 0.0 0.00 0.00 0.00 32 1013.6
20260506083044 62 0 0.0 0.0 0.00 0.00 0.00 32 1013.6
20260506082531 62 0 0.0 0.0 0.00 0.00 0.00 31 1013.5
20260506082031 62 0 0.0 0.0 0.00 0.00 0.00 31 1013.6
20260506081550 62 0 0.0 0.0 0.00 0.00 0.00 31 1013.6
20260506081032 63 0 0.0 0.0 0.00 0.00 0.00 30 1013.6
20260506080532 63 0 0.0 0.0 0.00 0.00 0.00 30 1013.7
20260506073043 64 0 0.0 0.0 0.00 0.00 0.00 28 1013.7
20260506072527 64 0 0.0 0.0 0.00 0.00 0.00 29 1013.6
20260506072031 64 0 0.0 0.0 0.00 0.00 0.00 30 1013.6
20260506071548 64 0 0.0 0.0 0.00 0.00 0.00 30 1013.5
20260506071031 65 0 0.0 0.0 0.00 0.00 0.00 27 1013.4
20260506070531 65 0 0.0 0.0 0.00 0.00 0.00 29 1013.4
20260506070107 65 0 0.0 0.0 0.00 0.00 0.00 28 1013.3
20260506062028 66 0 0.0 0.0 0.00 0.00 0.00 27 1013.1
20260506061542 66 0 0.0 0.0 0.00 0.00 0.00 27 1013.3
20260506061031 66 0 0.0 0.0 0.00 0.00 0.00 27 1013.3
20260506060528 66 0 0.0 0.0 0.00 0.00 0.00 27 1013.2
20260506051031 68 0 0.0 0.0 0.00 0.00 0.00 26 1012.8
20260506050528 68 0 0.0 0.0 0.00 0.00 0.00 26 1012.7
20260506045031 68 0 0.0 0.0 0.00 0.00 0.00 25 1012.6
20260506044552 69 0 0.0 0.0 0.00 0.00 0.00 25 1012.5
20260506044031 69 0 0.0 0.0 0.00 0.00 0.00 25 1012.5
20260506043531 69 0 0.0 0.0 0.00 0.00 0.00 25 1012.5
20260506043048 69 0 0.0 0.0 0.00 0.00 0.00 24 1012.5
20260506042530 69 0 0.0 0.0 0.00 0.00 0.00 24 1012.4
20260506042031 69 0 0.0 0.0 0.00 0.00 0.00 25 1012.4
20260506041552 70 0 0.0 0.0 0.00 0.00 0.00 24 1012.4
20260506041028 70 0 0.0 0.0 0.00 0.00 0.00 23 1012.3
20260506040531 70 0 0.0 0.0 0.00 0.00 0.00 23 1012.2
20260506040046 70 0 0.0 0.0 0.00 0.00 0.00 23 1012.1
20260506035532 70 0 0.0 0.0 0.00 0.00 0.00 23 1012.1
20260506035030 70 0 0.0 0.0 0.00 0.00 0.00 23 1012.0
20260506034542 71 0 0.0 0.0 0.00 0.00 0.00 22 1012.0
20260506034030 71 0 0.0 0.0 0.00 0.00 0.00 22 1011.8
20260506033530 71 0 0.0 0.0 0.00 0.00 0.00 22 1011.9
20260506033040 71 0 0.0 0.0 0.00 0.00 0.00 22 1011.7
20260506032530 71 0 0.0 0.0 0.00 0.00 0.00 21 1011.7
20260506032031 71 0 0.0 0.0 0.00 0.00 0.00 21 1011.6
20260506031556 72 0 0.0 0.0 0.00 0.00 0.00 21 1011.5
20260506031029 72 0 0.0 0.0 0.00 0.00 0.00 21 1011.4
20260506030528 72 0 0.0 0.0 0.00 0.00 0.00 20 1011.4
20260506030105 72 0 0.0 0.0 0.00 0.00 0.00 20 1011.4
20260506025533 72 0 0.0 0.0 0.00 0.00 0.00 19 1011.3
20260506025031 73 0 0.0 0.0 0.00 0.00 0.00 19 1011.3
20260506024553 73 0 0.0 0.0 0.00 0.00 0.00 19 1011.2
20260506024032 73 0 0.0 0.0 0.00 0.00 0.00 19 1011.2
20260506023532 73 0 0.0 0.0 0.00 0.00 0.00 19 1011.1
20260506023042 73 0 0.0 1.0 0.00 0.00 0.00 19 1011.0
20260506022531 73 0 0.0 1.0 0.00 0.00 0.00 19 1011.0
20260506022031 74 229 0.0 0.0 0.00 0.00 0.00 19 1010.8
20260506021546 74 0 0.0 0.0 0.00 0.00 0.00 19 1010.8
20260506021027 74 0 0.0 0.0 0.00 0.00 0.00 18 1010.7
20260506020630 74 0 0.0 1.0 0.00 0.00 0.00 18 1010.7
20260506020046 75 0 0.0 1.0 0.00 0.00 0.00 18 1010.6
20260506015532 75 0 0.0 2.0 0.00 0.00 0.00 17 1010.5
20260506015033 75 0 0.0 2.0 0.00 0.00 0.00 17 1010.5
20260506014543 75 0 0.0 3.0 0.00 0.00 0.00 17 1010.4
20260506014032 76 0 0.0 3.0 0.00 0.00 0.00 17 1010.3
20260506013532 76 0 0.0 1.0 0.00 0.00 0.00 17 1010.4
20260506013046 76 0 0.0 2.0 0.00 0.00 0.00 17 1010.2
20260506012532 76 0 0.0 2.0 0.00 0.00 0.00 17 1010.3
20260506012032 77 0 0.0 4.0 0.00 0.00 0.00 17 1010.2
20260506011540 77 0 0.0 4.0 0.00 0.00 0.00 17 1010.3
20260506011032 77 0 0.0 2.0 0.00 0.00 0.00 16 1010.2
20260506010530 78 0 0.0 2.0 0.00 0.00 0.00 16 1010.1
20260506010045 78 0 0.0 2.0 0.00 0.00 0.00 16 1010.2
20260506005530 78 0 0.0 1.0 0.00 0.00 0.00 16 1010.0
20260506005034 78 0 0.0 1.0 0.00 0.00 0.00 16 1010.0
20260506004620 78 0 0.0 1.0 0.00 0.00 0.00 16 1010.0
20260506004033 79 0 0.0 1.0 0.00 0.00 0.00 15 1010.0